FW0014 Weather Reports


time (UTC)temp
C
wind
direction
speed
KPH
gust
KPH
rain 1hr
cm
rain 24hr
cm
rain mn
cm
humidity
%
barometer
mb
20260505171541 25 224 0.0 0.0 0.00 0.00 0.00 76 1007.7
20260505171344 25 233 0.0 0.0 0.00 0.00 0.00 76 1009.9
20260505171101 25 304 0.0 0.0 0.00 0.00 0.00 77 1007.8
20260505170817 25 199 0.0 0.0 0.00 0.00 0.00 77 1010.0
20260505170553 25 218 0.0 0.0 0.00 0.00 0.00 78 1007.8
20260505170333 25 214 0.0 0.0 0.00 0.00 0.00 78 1009.9
20260505170048 24 222 0.0 0.0 0.00 0.00 0.00 78 1007.7
20260505165830 25 225 0.0 0.0 0.00 0.00 0.00 78 1009.7
20260505165541 24 197 0.0 0.0 0.00 0.00 0.00 78 1007.5
20260505165326 24 212 0.0 0.0 0.00 0.00 0.00 78 1009.6
20260505165028 24 228 0.0 0.0 0.00 0.00 0.00 78 1007.5
20260505164843 25 222 0.0 0.0 0.00 0.00 0.00 77 1009.6
20260505164554 24 208 0.0 0.0 0.00 0.00 0.00 78 1007.4
20260505164319 25 218 0.0 0.0 0.00 0.00 0.00 78 1009.6
20260505164046 24 240 0.0 0.0 0.00 0.00 0.00 79 1007.5
20260505163814 25 211 0.0 0.0 0.00 0.00 0.00 79 1009.6
20260505163538 24 197 0.0 0.0 0.00 0.00 0.00 79 1007.5
20260505163351 24 224 0.0 0.0 0.00 0.00 0.00 80 1009.7
20260505163009 23 225 0.0 0.0 0.00 0.00 0.00 79 1007.7
20260505162826 24 211 0.0 0.0 0.00 0.00 0.00 79 1009.7
20260505162559 23 229 0.0 0.0 0.00 0.00 0.00 80 1007.7
20260505162342 24 216 0.0 0.0 0.00 0.00 0.00 79 1009.8
20260505162033 23 199 0.0 0.0 0.00 0.00 0.00 80 1007.8
20260505161837 23 216 0.0 0.0 0.00 0.00 0.00 80 1010.0
20260505161600 23 234 0.0 0.0 0.00 0.00 0.00 80 1007.7
20260505161331 23 242 0.0 0.0 0.00 0.00 0.00 80 1009.9
20260505161053 23 245 0.0 0.0 0.00 0.00 0.00 80 1007.8
20260505160828 23 232 0.0 0.0 0.00 0.00 0.00 80 1009.9
20260505160545 23 234 0.0 0.0 0.00 0.00 0.00 80 1007.7
20260505160323 24 260 0.0 0.0 0.00 0.00 0.00 80 1010.0
20260505153339 23 212 0.0 0.0 0.00 0.00 0.00 81 1009.9
20260505153058 23 218 0.0 0.0 0.00 0.00 0.00 81 1007.8
20260505152832 23 216 0.0 0.0 0.00 0.00 0.00 81 1009.9
20260505152517 23 199 0.0 0.0 0.00 0.00 0.00 81 1007.8
20260505152327 23 218 0.0 0.0 0.00 0.00 0.00 81 1009.7
20260505152011 23 223 0.0 0.0 0.00 0.00 0.00 81 1007.6
20260505151844 23 227 0.0 0.0 0.00 0.00 0.00 81 1009.7
20260505151541 23 191 0.0 0.0 0.00 0.00 0.00 82 1007.6
20260505151318 23 207 0.0 0.0 0.00 0.00 0.00 82 1009.7
20260505151034 22 233 0.0 0.0 0.00 0.00 0.00 82 1007.5
20260505150816 23 228 0.0 0.0 0.00 0.00 0.00 81 1009.6
20260505150525 22 243 0.0 0.0 0.00 0.00 0.00 82 1007.6
20260505150331 23 196 0.0 0.0 0.00 0.00 0.00 81 1009.8
20260505140521 21 224 17.7 35.4 0.00 0.00 0.00 84 1007.5
20260505140322 22 222 19.3 35.4 0.00 0.00 0.00 84 1009.4
20260505124818 21 229 12.9 22.5 0.00 0.00 0.00 86 1008.5
20260505124547 21 235 9.7 19.3 0.00 0.00 0.00 86 1006.4
20260505124315 21 228 12.9 19.3 0.00 0.00 0.00 86 1008.5
20260505124040 21 198 12.9 24.1 0.00 0.00 0.00 86 1006.5
20260505123853 21 236 9.7 24.1 0.00 0.00 0.00 87 1008.5
20260505123508 21 206 14.5 24.1 0.00 0.00 0.00 87 1006.4
20260505123329 21 214 11.3 24.1 0.00 0.00 0.00 87 1008.3
20260505123104 21 241 9.7 19.3 0.00 0.00 0.00 87 1006.3
20260505122845 21 222 11.3 19.3 0.00 0.00 0.00 87 1008.3
20260505122530 21 241 8.0 19.3 0.00 0.00 0.00 87 1006.3
20260505122319 21 241 11.3 19.3 0.00 0.00 0.00 87 1008.3
20260505122026 21 212 11.3 19.3 0.00 0.00 0.00 87 1006.2
20260505121816 21 188 11.3 16.1 0.00 0.00 0.00 87 1008.2
20260505121507 21 193 9.7 16.1 0.00 0.00 0.00 87 1006.1
20260505121351 21 222 12.9 16.1 0.00 0.00 0.00 87 1008.2
20260505121041 21 211 9.7 17.7 0.00 0.00 0.00 87 1006.2
20260505120826 21 212 12.9 19.3 0.00 0.00 0.00 87 1008.2
20260505120531 21 243 9.7 17.7 0.00 0.00 0.00 87 1006.1
20260505120322 21 207 9.7 25.7 0.00 0.00 0.00 87 1008.1
20260505120020 21 206 11.3 25.7 0.00 0.00 0.00 86 1006.1
20260505115837 21 197 9.7 25.7 0.00 0.00 0.00 86 1008.1
20260505115544 20 200 12.9 19.3 0.00 0.00 0.00 87 1006.1
20260505115351 21 224 9.7 17.7 0.00 0.00 0.00 87 1008.0
20260505115007 20 201 8.0 14.5 0.00 0.00 0.00 87 1006.0
20260505114826 21 191 8.0 14.5 0.00 0.00 0.00 87 1008.0
20260505114600 20 206 6.4 19.3 0.00 0.00 0.00 87 1005.9
20260505114324 21 201 6.4 19.3 0.00 0.00 0.00 86 1007.8
20260505114054 20 203 8.0 19.3 0.00 0.00 0.00 86 1005.9
20260505113819 21 197 12.9 19.3 0.00 0.00 0.00 86 1007.8
20260505113548 20 190 8.0 17.7 0.00 0.00 0.00 86 1005.8
20260505113314 21 208 9.7 17.7 0.00 0.00 0.00 86 1007.7
20260505113038 20 189 11.3 24.1 0.00 0.00 0.00 86 1005.8
20260505112852 21 185 11.3 24.1 0.00 0.00 0.00 86 1007.7
20260505112502 20 210 14.5 24.1 0.00 0.00 0.00 86 1005.7
20260505112330 21 199 12.9 25.7 0.00 0.00 0.00 86 1007.7
20260505112055 21 219 16.1 25.7 0.00 0.00 0.00 86 1005.8
20260505111825 21 195 16.1 25.7 0.00 0.00 0.00 86 1007.8
20260505111547 21 198 14.5 24.1 0.00 0.00 0.00 86 1005.7
20260505111320 21 213 16.1 29.0 0.00 0.00 0.00 86 1007.7
20260505111039 20 214 14.5 29.0 0.00 0.00 0.00 86 1005.6
20260505110837 21 183 14.5 29.0 0.00 0.00 0.00 86 1007.6
20260505110502 21 214 12.9 22.5 0.00 0.00 0.00 86 1005.6
20260505110328 21 204 11.3 22.5 0.00 0.00 0.00 86 1007.6
20260505110111 21 216 16.1 22.5 0.00 0.00 0.00 86 1005.7
20260505102025 21 218 9.7 22.5 0.00 0.00 0.00 86 1006.2
20260505101832 21 226 14.5 22.5 0.00 0.00 0.00 86 1008.2
20260505101506 21 194 12.9 22.5 0.00 0.00 0.00 86 1006.2
20260505101328 21 179 14.5 22.5 0.00 0.00 0.00 86 1008.1
20260505101100 21 210 12.9 24.1 0.00 0.00 0.00 86 1006.1
20260505100844 21 216 14.5 24.1 0.00 0.00 0.00 86 1008.1
20260505100531 21 220 14.5 24.1 0.00 0.00 0.00 86 1006.1
20260505100316 21 183 12.9 22.5 0.00 0.00 0.00 86 1008.0
20260505100019 20 207 9.7 20.9 0.00 0.00 0.00 86 1006.0
20260505095829 21 179 12.9 20.9 0.00 0.00 0.00 86 1007.9
20260505095510 20 158 11.3 20.9 0.00 0.00 0.00 86 1005.9
20260505095326 21 193 12.9 20.9 0.00 0.00 0.00 86 1007.8
20260505095100 20 206 12.9 20.9 0.00 0.00 0.00 86 1005.9
20260505094842 21 189 12.9 20.9 0.00 0.00 0.00 86 1007.9
20260505094532 20 192 12.9 22.5 0.00 0.00 0.00 86 1006.1
20260505094337 21 200 11.3 27.4 0.00 0.00 0.00 86 1008.0
20260505094052 20 197 12.9 27.4 0.00 0.00 0.00 86 1006.1
20260505093831 21 209 14.5 27.4 0.00 0.00 0.00 86 1008.1
20260505093545 20 214 14.5 25.7 0.00 0.00 0.00 86 1006.2
20260505093328 21 213 16.1 22.5 0.00 0.00 0.00 86 1008.2
20260505093039 20 189 12.9 25.7 0.00 0.00 0.00 86 1006.1
20260505092825 21 185 11.3 25.7 0.00 0.00 0.00 86 1008.0
20260505092529 20 220 14.5 25.7 0.00 0.00 0.00 86 1006.0
20260505092321 21 200 16.1 24.1 0.00 0.00 0.00 86 1008.0
20260505092023 20 199 12.9 24.1 0.00 0.00 0.00 86 1006.1
20260505091817 21 203 12.9 24.1 0.00 0.00 0.00 86 1008.2
20260505091506 20 206 14.5 20.9 0.00 0.00 0.00 86 1006.2
20260505091333 21 214 12.9 24.1 0.00 0.00 0.00 86 1008.1
20260505091058 20 187 12.9 24.1 0.00 0.00 0.00 86 1006.2
20260505090830 21 226 12.9 24.1 0.00 0.00 0.00 86 1008.1
20260505090552 20 197 14.5 29.0 0.00 0.00 0.00 86 1006.3
20260505090325 21 210 11.3 29.0 0.00 0.00 0.00 86 1008.2
20260505090044 20 204 12.9 29.0 0.00 0.00 0.00 87 1006.3
20260505085821 21 219 17.7 29.0 0.00 0.00 0.00 87 1008.3
20260505085536 20 220 12.9 19.3 0.00 0.00 0.00 87 1006.3
20260505085317 20 206 14.5 19.3 0.00 0.00 0.00 87 1008.2
20260505085031 20 201 12.9 25.7 0.00 0.00 0.00 87 1006.5
20260505084833 20 210 12.9 25.7 0.00 0.00 0.00 87 1008.4
20260505084513 20 231 16.1 25.7 0.00 0.00 0.00 87 1006.4
20260505084328 20 216 17.7 25.7 0.00 0.00 0.00 87 1008.4
20260505084004 20 197 16.1 27.4 0.00 0.00 0.00 87 1006.5
20260505083824 20 211 14.5 22.5 0.00 0.00 0.00 87 1008.4
20260505083558 20 189 14.5 20.9 0.00 0.00 0.00 87 1006.6
20260505083319 20 186 16.1 20.9 0.00 0.00 0.00 87 1008.5
20260505083105 20 193 12.9 22.5 0.00 0.00 0.00 87 1006.7
20260505082815 20 195 12.9 20.9 0.00 0.00 0.00 86 1008.7
20260505082542 20 224 12.9 20.9 0.00 0.00 0.00 86 1007.0
20260505082331 20 204 12.9 20.9 0.00 0.00 0.00 86 1008.8
20260505082032 20 195 11.3 20.9 0.00 0.00 0.00 86 1006.8
20260505081828 20 199 9.7 16.1 0.00 0.00 0.00 86 1008.8
20260505081526 20 209 8.0 16.1 0.00 0.00 0.00 86 1006.9
20260505081343 20 208 12.9 16.1 0.00 0.00 0.00 86 1008.9
20260505081053 20 205 9.7 14.5 0.00 0.00 0.00 86 1007.0
20260505080853 20 212 6.4 16.1 0.00 0.00 0.00 86 1008.9
20260505080519 20 218 8.0 17.7 0.00 0.00 0.00 86 1007.1
20260505080327 20 183 9.7 17.7 0.00 0.00 0.00 86 1009.1
20260505080008 20 177 11.3 17.7 0.00 0.00 0.00 86 1007.1
20260505075823 20 216 9.7 20.9 0.00 0.00 0.00 86 1009.0
20260505075504 20 193 8.0 20.9 0.00 0.00 0.00 86 1007.1
20260505075321 20 156 8.0 20.9 0.00 0.00 0.00 86 1009.0
20260505075102 20 210 11.3 20.9 0.00 0.00 0.00 86 1007.3
20260505074816 20 191 8.0 19.3 0.00 0.00 0.00 86 1009.1
20260505074554 20 202 11.3 19.3 0.00 0.00 0.00 86 1007.0
20260505074350 20 181 14.5 17.7 0.00 0.00 0.00 86 1008.9
20260505074028 20 183 9.7 17.7 0.00 0.00 0.00 86 1007.1
20260505073825 21 211 9.7 17.7 0.00 0.00 0.00 86 1009.1
20260505073524 20 193 8.0 17.7 0.00 0.00 0.00 86 1007.2
20260505073321 21 192 11.3 16.1 0.00 0.00 0.00 86 1009.1
20260505073005 20 195 11.3 17.7 0.00 0.00 0.00 86 1007.2
20260505072839 21 169 12.9 19.3 0.00 0.00 0.00 85 1009.2
20260505072537 20 166 9.7 20.9 0.00 0.00 0.00 85 1007.3
20260505072334 21 152 11.3 20.9 0.00 0.00 0.00 85 1009.2
20260505072033 20 173 11.3 20.9 0.00 0.00 0.00 85 1007.5
20260505071851 21 167 11.3 22.5 0.00 0.00 0.00 85 1009.3
20260505071558 20 198 12.9 20.9 0.00 0.00 0.00 85 1007.5
20260505071326 21 211 11.3 20.9 0.00 0.00 0.00 85 1009.5
20260505071052 20 181 12.9 20.9 0.00 0.00 0.00 85 1007.7
20260505070823 21 177 17.7 20.9 0.00 0.00 0.00 85 1009.6
20260505070542 20 186 12.9 20.9 0.00 0.00 0.00 85 1007.6
20260505070320 21 183 16.1 22.5 0.00 0.00 0.00 85 1009.4
20260505070034 21 193 8.0 24.1 0.00 0.00 0.00 85 1007.7
20260505065835 21 180 16.1 24.1 0.00 0.00 0.00 85 1009.5
20260505065559 21 137 14.5 24.1 0.00 0.00 0.00 85 1007.7
20260505065352 21 162 17.7 24.1 0.00 0.00 0.00 84 1009.6
20260505065028 21 203 12.9 22.5 0.00 0.00 0.00 84 1007.7
20260505064846 21 195 14.5 25.7 0.00 0.00 0.00 84 1009.5
20260505064639 21 206 14.5 25.7 0.00 0.00 0.00 84 1007.7
20260505064320 21 183 14.5 25.7 0.00 0.00 0.00 84 1009.6
20260505064048 21 196 16.1 25.7 0.00 0.00 0.00 84 1007.8
20260505063817 21 188 16.1 25.7 0.00 0.00 0.00 84 1009.6
20260505063542 21 172 12.9 25.7 0.00 0.00 0.00 83 1007.7
20260505063353 21 192 19.3 25.7 0.00 0.00 0.00 83 1009.6
20260505063007 21 164 12.9 25.7 0.00 0.00 0.00 83 1007.8
20260505062828 21 191 17.7 25.7 0.00 0.00 0.00 83 1009.7
20260505062600 21 172 16.1 25.7 0.00 0.00 0.00 83 1007.8
20260505062325 21 196 14.5 22.5 0.00 0.00 0.00 83 1009.6
20260505062049 21 185 11.3 22.5 0.00 0.00 0.00 83 1007.8
20260505061821 21 189 12.9 25.7 0.00 0.00 0.00 83 1009.7
20260505061541 21 186 14.5 25.7 0.00 0.00 0.00 83 1007.7
20260505061316 21 201 16.1 25.7 0.00 0.00 0.00 83 1009.6
20260505061032 21 205 12.9 29.0 0.00 0.00 0.00 83 1007.7
20260505060829 21 216 12.9 29.0 0.00 0.00 0.00 82 1009.6
20260505060514 21 183 16.1 29.0 0.00 0.00 0.00 82 1007.6
20260505060323 21 179 16.1 29.0 0.00 0.00 0.00 82 1009.6
20260505060108 21 178 12.9 22.5 0.00 0.00 0.00 82 1007.8
20260505055816 21 195 14.5 22.5 0.00 0.00 0.00 82 1009.8
20260505055544 21 195 11.3 22.5 0.00 0.00 0.00 81 1007.9
20260505055332 21 201 14.5 22.5 0.00 0.00 0.00 81 1009.9
20260505055036 21 195 14.5 19.3 0.00 0.00 0.00 81 1008.1
20260505054828 21 203 9.7 20.9 0.00 0.00 0.00 81 1010.0
20260505054543 21 179 11.3 20.9 0.00 0.00 0.00 81 1008.1
20260505054325 21 198 12.9 20.9 0.00 0.00 0.00 81 1010.0
20260505054022 21 153 9.7 20.9 0.00 0.00 0.00 81 1008.2
20260505053821 21 204 9.7 20.9 0.00 0.00 0.00 81 1010.0
20260505053502 21 203 12.9 20.9 0.00 0.00 0.00 80 1008.1
20260505053317 21 183 11.3 17.7 0.00 0.00 0.00 80 1009.9
20260505053054 21 197 9.7 22.5 0.00 0.00 0.00 80 1008.1
20260505052814 22 204 11.3 22.5 0.00 0.00 0.00 80 1009.9
20260505052548 21 195 12.9 22.5 0.00 0.00 0.00 80 1008.2
20260505052348 22 184 12.9 22.5 0.00 0.00 0.00 79 1009.9
20260505052024 21 209 9.7 20.9 0.00 0.00 0.00 79 1008.1
20260505051823 22 191 12.9 20.9 0.00 0.00 0.00 79 1009.9
20260505051504 21 189 6.4 19.3 0.00 0.00 0.00 78 1008.1
20260505051321 22 203 9.7 19.3 0.00 0.00 0.00 78 1009.9
20260505051057 21 200 11.3 19.3 0.00 0.00 0.00 78 1008.1
20260505050817 22 170 11.3 17.7 0.00 0.00 0.00 78 1009.8
20260505050548 21 197 9.7 19.3 0.00 0.00 0.00 78 1008.1
20260505050353 22 152 11.3 19.3 0.00 0.00 0.00 78 1009.8
20260505050114 21 197 12.9 19.3 0.00 0.00 0.00 78 1008.0
20260505041556 22 193 0.0 0.0 0.00 0.00 0.00 75 1008.3
20260505041320 22 195 0.0 0.0 0.00 0.00 0.00 75 1009.9
20260505041041 22 158 0.0 0.0 0.00 0.00 0.00 75 1008.3
20260505040816 22 165 0.0 0.0 0.00 0.00 0.00 75 1009.9
20260505040532 22 184 0.0 0.0 0.00 0.00 0.00 75 1008.2
20260505040328 22 188 0.0 0.0 0.00 0.00 0.00 75 1009.9
20260505040025 22 166 0.0 0.0 0.00 0.00 0.00 75 1008.1
20260505035823 22 177 0.0 0.0 0.00 0.00 0.00 74 1009.9
20260505035509 22 162 0.0 0.0 0.00 0.00 0.00 74 1008.2
20260505035320 22 183 0.0 0.0 0.00 0.00 0.00 74 1009.9
20260505035102 22 194 0.0 0.0 0.00 0.00 0.00 74 1008.2
20260505034836 22 160 0.0 0.0 0.00 0.00 0.00 74 1009.9
20260505034539 22 154 0.0 0.0 0.00 0.00 0.00 74 1008.1
20260505034331 22 187 0.0 0.0 0.00 0.00 0.00 74 1009.9
20260505034018 22 189 0.0 0.0 0.00 0.00 0.00 73 1008.2
20260505033828 22 183 0.0 0.0 0.00 0.00 0.00 73 1009.9
20260505033513 22 225 0.0 0.0 0.00 0.00 0.00 73 1008.2
20260505033345 22 178 0.0 0.0 0.00 0.00 0.00 73 1009.9
20260505033044 22 202 0.0 0.0 0.00 0.00 0.00 73 1008.2
20260505032818 22 163 0.0 0.0 0.00 0.00 0.00 73 1009.9
20260505032536 22 169 0.0 0.0 0.00 0.00 0.00 73 1008.2
20260505032315 22 164 0.0 0.0 0.00 0.00 0.00 73 1009.9
20260505032026 22 165 0.0 0.0 0.00 0.00 0.00 73 1008.2
20260505031831 22 173 0.0 0.0 0.00 0.00 0.00 73 1009.9
20260505031508 22 186 0.0 0.0 0.00 0.00 0.00 73 1008.1
20260505031326 22 201 0.0 0.0 0.00 0.00 0.00 73 1009.9
20260505031002 22 188 0.0 0.0 0.00 0.00 0.00 73 1008.1
20260505030824 22 181 0.0 0.0 0.00 0.00 0.00 73 1009.8
20260505030600 22 198 0.0 0.0 0.00 0.00 0.00 73 1008.1
20260505030320 22 187 0.0 0.0 0.00 0.00 0.00 73 1009.8
20260505025814 23 185 0.0 0.0 0.00 0.00 0.00 72 1009.8
20260505025546 22 185 0.0 0.0 0.00 0.00 0.00 72 1008.2
20260505025330 23 195 0.0 0.0 0.00 0.00 0.00 72 1009.8
20260505025039 22 178 0.0 0.0 0.00 0.00 0.00 72 1008.1
20260505024826 23 181 0.0 0.0 0.00 0.00 0.00 72 1009.8
20260505024504 22 213 0.0 0.0 0.00 0.00 0.00 72 1008.0
20260505024321 23 199 0.0 0.0 0.00 0.00 0.00 72 1009.7
20260505024057 22 193 0.0 0.0 0.00 0.00 0.00 72 1008.0
20260505023815 23 188 0.0 0.0 0.00 0.00 0.00 72 1009.7
20260505023550 22 195 0.0 0.0 0.00 0.00 0.00 72 1007.9
20260505023331 23 179 0.0 0.0 0.00 0.00 0.00 72 1009.6
20260505023046 22 172 0.0 0.0 0.00 0.00 0.00 72 1008.0
20260505022828 23 193 0.0 0.0 0.00 0.00 0.00 72 1009.8
20260505022540 22 190 0.0 0.0 0.00 0.00 0.00 71 1008.1
20260505022322 23 190 0.0 0.0 0.00 0.00 0.00 71 1009.8
20260505022037 23 212 0.0 0.0 0.00 0.00 0.00 71 1008.0
20260505021819 23 180 0.0 0.0 0.00 0.00 0.00 71 1009.7
20260505021527 23 183 0.0 0.0 0.00 0.00 0.00 71 1007.8
20260505021314 23 151 0.0 0.0 0.00 0.00 0.00 71 1009.4
20260505021021 23 187 0.0 0.0 0.00 0.00 0.00 71 1007.8
20260505020849 23 154 0.0 0.0 0.00 0.00 0.00 71 1009.6
20260505020540 23 179 0.0 0.0 0.00 0.00 0.00 71 1008.0
20260505020324 23 194 0.0 0.0 0.00 0.00 0.00 71 1009.7
20260505020038 23 199 0.0 0.0 0.00 0.00 0.00 71 1008.0
20260505015819 23 192 0.0 0.0 0.00 0.00 0.00 70 1009.7
20260505015524 23 197 0.0 0.0 0.00 0.00 0.00 70 1007.9
20260505015314 23 174 0.0 0.0 0.00 0.00 0.00 70 1009.6
20260505015008 23 157 0.0 0.0 0.00 0.00 0.00 70 1008.0
20260505014831 23 199 0.0 0.0 0.00 0.00 0.00 70 1009.7
20260505014504 23 193 0.0 0.0 0.00 0.00 0.00 70 1007.9
20260505014328 23 179 0.0 0.0 0.00 0.00 0.00 70 1009.6
20260505014058 23 195 0.0 0.0 0.00 0.00 0.00 69 1007.8
20260505013825 23 187 0.0 0.0 0.00 0.00 0.00 69 1009.5
20260505013550 23 179 0.0 0.0 0.00 0.00 0.00 69 1007.9
20260505013321 23 210 0.0 0.0 0.00 0.00 0.00 69 1009.6
20260505013042 23 194 0.0 0.0 0.00 0.00 0.00 69 1007.8
20260505012818 24 196 0.0 0.0 0.00 0.00 0.00 68 1009.5
20260505012536 23 179 0.0 0.0 0.00 0.00 0.00 68 1007.8
20260505012353 24 196 0.0 0.0 0.00 0.00 0.00 68 1009.5
20260505012058 23 192 0.0 0.0 0.00 0.00 0.00 68 1007.8
20260505011828 24 190 0.0 0.0 0.00 0.00 0.00 68 1009.5
20260505011550 24 194 0.0 0.0 0.00 0.00 0.00 68 1007.7
20260505011325 24 193 0.0 0.0 0.00 0.00 0.00 68 1009.4
20260505011047 24 163 0.0 0.0 0.00 0.00 0.00 68 1007.7
20260505010838 24 204 0.0 0.0 0.00 0.00 0.00 67 1009.3
20260505010516 24 181 0.0 0.0 0.00 0.00 0.00 67 1007.6
20260505010332 25 206 0.0 0.0 0.00 0.00 0.00 67 1009.4
20260505010113 24 174 0.0 0.0 0.00 0.00 0.00 67 1007.7
20260505005829 25 167 0.0 0.0 0.00 0.00 0.00 66 1009.4
20260505005552 24 199 0.0 0.0 0.00 0.00 0.00 66 1007.8
20260505005324 25 186 0.0 0.0 0.00 0.00 0.00 66 1009.5
20260505005042 25 199 0.0 0.0 0.00 0.00 0.00 66 1007.8
20260505004840 25 214 0.0 0.0 0.00 0.00 0.00 66 1009.5
20260505004513 25 204 0.0 0.0 0.00 0.00 0.00 65 1007.9
20260505004314 25 187 0.0 0.0 0.00 0.00 0.00 65 1009.6
20260505004100 25 192 0.0 0.0 0.00 0.00 0.00 65 1007.9
20260505003830 25 181 0.0 0.0 0.00 0.00 0.00 65 1009.6
20260505003550 25 200 0.0 0.0 0.00 0.00 0.00 64 1008.1
20260505003327 25 197 0.0 0.0 0.00 0.00 0.00 64 1009.7
20260505003045 25 218 0.0 0.0 0.00 0.00 0.00 64 1008.1
20260505002823 25 208 0.0 0.0 0.00 0.00 0.00 63 1009.8
20260505002538 25 192 0.0 0.0 0.00 0.00 0.00 63 1008.1
20260505002318 26 176 0.0 0.0 0.00 0.00 0.00 63 1009.8
20260505002028 25 185 0.0 0.0 0.00 0.00 0.00 63 1008.1
20260505001815 26 213 0.0 0.0 0.00 0.00 0.00 63 1009.8
20260505001512 26 191 0.0 0.0 0.00 0.00 0.00 63 1008.1
20260505001331 26 201 0.0 0.0 0.00 0.00 0.00 63 1009.7
20260505001003 26 213 0.0 0.0 0.00 0.00 0.00 63 1008.0
20260505000848 26 211 0.0 0.0 0.00 0.00 0.00 63 1009.6
20260505000540 26 194 0.0 0.0 0.00 0.00 0.00 63 1008.0
20260505000322 26 186 0.0 0.0 0.00 0.00 0.00 63 1009.7
20260505000037 26 187 0.0 0.0 0.00 0.00 0.00 63 1008.0
20260504235818 26 184 0.0 0.0 0.00 0.00 0.00 62 1009.6
20260504235526 26 204 0.0 0.0 0.00 0.00 0.00 62 1008.1
20260504235315 26 205 0.0 0.0 0.00 0.00 0.00 61 1009.6
20260504235012 26 194 0.0 0.0 0.00 0.00 0.00 61 1008.0
20260504234850 26 187 0.0 0.0 0.00 0.00 0.00 61 1009.6
20260504234542 26 152 0.0 0.0 0.00 0.00 0.00 61 1007.9
20260504234345 26 224 0.0 0.0 0.00 0.00 0.00 61 1009.5
20260504234006 26 224 0.0 0.0 0.00 0.00 0.00 60 1008.0
20260504233820 26 224 0.0 0.0 0.00 0.00 0.00 60 1009.6
20260504233600 26 185 0.0 0.0 0.00 0.00 0.00 61 1008.0
20260504233315 27 180 0.0 0.0 0.00 0.00 0.00 61 1009.6
20260504233052 26 196 0.0 0.0 0.00 0.00 0.00 61 1008.1
20260504232832 26 211 0.0 0.0 0.00 0.00 0.00 60 1009.8
20260504232543 26 213 0.0 0.0 0.00 0.00 0.00 61 1008.2
20260504232328 26 206 0.0 0.0 0.00 0.00 0.00 62 1009.9
20260504232036 26 211 0.0 0.0 0.00 0.00 0.00 61 1008.1
20260504231845 26 208 0.0 0.0 0.00 0.00 0.00 61 1009.7
20260504231625 26 207 0.0 0.0 0.00 0.00 0.00 61 1008.3
20260504231320 26 192 0.0 0.0 0.00 0.00 0.00 61 1009.9
20260504231052 26 206 0.0 0.0 0.00 0.00 0.00 61 1008.0
20260504230817 27 222 0.0 0.0 0.00 0.00 0.00 60 1009.7
20260504230542 26 212 0.0 0.0 0.00 0.00 0.00 60 1008.1
20260504230314 27 181 0.0 0.0 0.00 0.00 0.00 60 1009.6
20260504230034 26 195 0.0 0.0 0.00 0.00 0.00 59 1008.1
20260504225830 27 206 0.0 0.0 0.00 0.00 0.00 59 1009.7
20260504225526 27 154 0.0 0.0 0.00 0.00 0.00 59 1008.1
20260504225347 27 192 0.0 0.0 0.00 0.00 0.00 59 1009.8
20260504225056 27 185 0.0 0.0 0.00 0.00 0.00 59 1008.1
20260504224821 27 174 0.0 0.0 0.00 0.00 0.00 59 1009.8
20260504224544 27 154 0.0 0.0 0.00 0.00 0.00 59 1008.2
20260504224401 27 197 0.0 0.0 0.00 0.00 0.00 58 1009.9
20260504224016 27 209 0.0 0.0 0.00 0.00 0.00 59 1008.2
20260504223830 27 199 0.0 0.0 0.00 0.00 0.00 59 1010.0
20260504223502 27 191 0.0 0.0 0.00 0.00 0.00 59 1008.3
20260504223347 27 212 0.0 0.0 0.00 0.00 0.00 60 1009.9
20260504223034 27 212 0.0 0.0 0.00 0.00 0.00 60 1008.2
20260504222843 27 190 0.0 0.0 0.00 0.00 0.00 59 1009.9
20260504222601 27 164 0.0 0.0 0.00 0.00 0.00 59 1008.3
20260504222318 27 229 0.0 0.0 0.00 0.00 0.00 60 1010.0
20260504222051 27 185 0.0 0.0 0.00 0.00 0.00 60 1008.4
20260504221853 27 179 0.0 0.0 0.00 0.00 0.00 59 1010.2
20260504221514 27 171 0.0 0.0 0.00 0.00 0.00 59 1008.6
20260504221328 27 199 0.0 0.0 0.00 0.00 0.00 59 1010.1
20260504221007 27 223 0.0 0.0 0.00 0.00 0.00 59 1008.5
20260504220823 27 207 0.0 0.0 0.00 0.00 0.00 58 1010.1
20260504220604 27 194 0.0 0.0 0.00 0.00 0.00 59 1008.6
20260504220318 27 201 0.0 0.0 0.00 0.00 0.00 59 1010.3
20260504220052 27 241 0.0 0.0 0.00 0.00 0.00 60 1008.6
20260504215833 27 211 0.0 0.0 0.00 0.00 0.00 60 1010.2
20260504215546 27 201 0.0 0.0 0.00 0.00 0.00 60 1008.7
20260504215329 27 225 0.0 0.0 0.00 0.00 0.00 59 1010.3
20260504215037 26 204 0.0 0.0 0.00 0.00 0.00 60 1008.7
20260504214825 27 172 0.0 0.0 0.00 0.00 0.00 60 1010.3
20260504214528 26 218 0.0 0.0 0.00 0.00 0.00 59 1008.7
20260504214319 27 151 0.0 0.0 0.00 0.00 0.00 60 1010.4
20260504214020 26 228 0.0 0.0 0.00 0.00 0.00 59 1008.8
20260504213836 27 193 0.0 0.0 0.00 0.00 0.00 60 1010.5
20260504213543 26 186 0.0 0.0 0.00 0.00 0.00 60 1009.0
20260504213332 27 185 0.0 0.0 0.00 0.00 0.00 61 1010.5
20260504213041 26 191 0.0 0.0 0.00 0.00 0.00 60 1008.9
20260504212827 27 221 0.0 0.0 0.00 0.00 0.00 61 1010.7
20260504212530 26 195 0.0 0.0 0.00 0.00 0.00 62 1009.0
20260504212325 27 211 0.0 0.0 0.00 0.00 0.00 60 1010.7
20260504212021 26 156 0.0 0.0 0.00 0.00 0.00 61 1009.0
20260504211840 26 158 0.0 0.0 0.00 0.00 0.00 61 1010.7
20260504211547 26 158 0.0 0.0 0.00 0.00 0.00 61 1008.9
20260504211353 26 206 0.0 0.0 0.00 0.00 0.00 60 1010.6
20260504211007 26 195 0.0 0.0 0.00 0.00 0.00 60 1009.1
20260504210830 27 181 0.0 0.0 0.00 0.00 0.00 60 1010.8
20260504210603 26 180 0.0 0.0 0.00 0.00 0.00 61 1009.3
20260504210327 27 162 0.0 0.0 0.00 0.00 0.00 61 1011.0
20260504210052 26 194 0.0 0.0 0.00 0.00 0.00 63 1009.3
20260504205821 26 214 0.0 0.0 0.00 0.00 0.00 63 1011.0
20260504205544 26 214 0.0 0.0 0.00 0.00 0.00 61 1009.6
20260504205318 26 228 0.0 0.0 0.00 0.00 0.00 62 1011.2
20260504205035 26 197 0.0 0.0 0.00 0.00 0.00 62 1009.7
20260504204850 26 218 0.0 0.0 0.00 0.00 0.00 62 1011.3
20260504204502 26 175 0.0 0.0 0.00 0.00 0.00 62 1009.9
20260504204325 26 197 0.0 0.0 0.00 0.00 0.00 62 1011.6
20260504204058 26 201 0.0 0.0 0.00 0.00 0.00 62 1010.0
20260504203822 26 194 0.0 0.0 0.00 0.00 0.00 63 1011.7
20260504203550 26 215 0.0 0.0 0.00 0.00 0.00 62 1010.1
20260504203338 26 212 0.0 0.0 0.00 0.00 0.00 63 1011.8
20260504203018 26 216 0.0 0.0 0.00 0.00 0.00 63 1010.2
20260504202814 26 157 0.0 0.0 0.00 0.00 0.00 62 1011.9
20260504202602 26 173 0.0 0.0 0.00 0.00 0.00 62 1010.5
20260504202329 26 228 0.0 0.0 0.00 0.00 0.00 64 1012.0
20260504202055 26 224 0.0 0.0 0.00 0.00 0.00 63 1010.5
20260504201846 26 164 0.0 0.0 0.00 0.00 0.00 63 1012.1
20260504201527 25 177 0.0 0.0 0.00 0.00 0.00 63 1010.6
20260504201322 26 226 0.0 0.0 0.00 0.00 0.00 64 1012.3
20260504201008 25 175 0.0 0.0 0.00 0.00 0.00 64 1010.7
20260504200818 26 164 0.0 0.0 0.00 0.00 0.00 64 1012.2
20260504200559 25 222 0.0 0.0 0.00 0.00 0.00 64 1010.8
20260504200315 25 214 0.0 0.0 0.00 0.00 0.00 63 1012.4
20260504200054 25 214 0.0 0.0 0.00 0.00 0.00 65 1010.8
20260504195830 25 214 0.0 0.0 0.00 0.00 0.00 64 1012.3
20260504195545 25 198 0.0 0.0 0.00 0.00 0.00 64 1010.8
20260504195326 25 222 0.0 0.0 0.00 0.00 0.00 63 1012.4
20260504195037 25 230 0.0 0.0 0.00 0.00 0.00 64 1010.9
20260504194842 25 223 0.0 0.0 0.00 0.00 0.00 64 1012.6
20260504194606 25 219 0.0 0.0 0.00 0.00 0.00 65 1011.2
20260504194316 25 206 0.0 0.0 0.00 0.00 0.00 65 1012.8
20260504194054 25 206 0.0 0.0 0.00 0.00 0.00 65 1011.2
20260504193832 25 193 0.0 0.0 0.00 0.00 0.00 64 1012.8
20260504193545 25 195 0.0 0.0 0.00 0.00 0.00 64 1011.1
20260504193329 25 186 0.0 0.0 0.00 0.00 0.00 64 1012.7
20260504193044 25 201 0.0 0.0 0.00 0.00 0.00 65 1011.3
20260504192824 25 169 0.0 0.0 0.00 0.00 0.00 66 1013.0
20260504192527 24 220 0.0 0.0 0.00 0.00 0.00 65 1011.4
20260504192320 25 216 0.0 0.0 0.00 0.00 0.00 67 1013.1
20260504192023 24 193 0.0 0.0 0.00 0.00 0.00 65 1011.7
20260504191816 25 173 0.0 0.0 0.00 0.00 0.00 66 1013.3
20260504191517 24 216 0.0 0.0 0.00 0.00 0.00 65 1011.5
20260504191314 25 224 0.0 0.0 0.00 0.00 0.00 65 1013.1
20260504191013 24 211 0.0 0.0 0.00 0.00 0.00 67 1011.5
20260504190830 25 226 0.0 0.0 0.00 0.00 0.00 67 1013.1
20260504190555 24 198 0.0 0.0 0.00 0.00 0.00 67 1011.8
20260504190325 24 198 0.0 0.0 0.00 0.00 0.00 67 1013.3
20260504190049 23 214 0.0 0.0 0.00 0.00 0.00 67 1012.0
20260504185821 24 172 0.0 0.0 0.00 0.00 0.00 67 1013.5
20260504185546 23 186 0.0 0.0 0.00 0.00 0.00 67 1012.0
20260504185319 23 211 0.0 0.0 0.00 0.00 0.00 68 1013.5
20260504185035 23 215 0.0 0.0 0.00 0.00 0.00 69 1012.0
20260504184854 23 236 0.0 0.0 0.00 0.00 0.00 69 1013.6
20260504184609 23 194 0.0 0.0 0.00 0.00 0.00 68 1012.1
20260504184330 23 226 0.0 0.0 0.00 0.00 0.00 68 1013.7
20260504184052 23 243 0.0 0.0 0.00 0.00 0.00 68 1012.3
20260504183826 23 181 0.0 0.0 0.00 0.00 0.00 68 1013.8
20260504183542 23 211 0.0 0.0 0.00 0.00 0.00 69 1012.3
20260504183342 23 208 0.0 0.0 0.00 0.00 0.00 69 1013.9
20260504183003 23 166 0.0 0.0 0.00 0.00 0.00 69 1012.3
20260504182818 23 198 0.0 0.0 0.00 0.00 0.00 70 1013.8
20260504182557 23 237 0.0 0.0 0.00 0.00 0.00 69 1012.5
20260504182314 23 211 0.0 0.0 0.00 0.00 0.00 69 1013.9
20260504182053 23 205 0.0 0.0 0.00 0.00 0.00 69 1012.5
20260504181830 23 172 0.0 0.0 0.00 0.00 0.00 71 1013.8
20260504181543 22 145 0.0 0.0 0.00 0.00 0.00 70 1012.4
20260504181325 23 209 0.0 0.0 0.00 0.00 0.00 71 1014.1
20260504181037 22 215 0.0 0.0 0.00 0.00 0.00 71 1012.7
20260504180819 22 216 0.0 0.0 0.00 0.00 0.00 71 1014.2
20260504180530 22 226 0.0 0.0 0.00 0.00 0.00 71 1012.8
20260504180317 22 210 0.0 0.0 0.00 0.00 0.00 70 1014.4
20260504180016 22 240 0.0 0.0 0.00 0.00 0.00 72 1012.8
20260504175833 22 241 0.0 0.0 0.00 0.00 0.00 72 1014.4
20260504175507 22 241 0.0 0.0 0.00 0.00 0.00 72 1012.8
20260504175344 22 229 0.0 0.0 0.00 0.00 0.00 72 1014.4
20260504175039 22 189 0.0 0.0 0.00 0.00 0.00 71 1012.9
20260504174820 22 215 0.0 29.0 0.00 0.00 0.00 72 1014.5
20260504174533 21 204 0.0 29.0 0.00 0.00 0.00 72 1013.0
20260504174317 22 186 0.0 30.6 0.00 0.00 0.00 73 1014.7
20260504174025 21 220 12.9 33.8 0.00 0.00 0.00 72 1013.2
20260504173833 21 208 19.3 33.8 0.00 0.00 0.00 73 1014.6
20260504173509 21 211 17.7 35.4 0.00 0.00 0.00 73 1013.1
20260504173329 21 226 19.3 35.4 0.00 0.00 0.00 73 1014.6
20260504173005 21 220 17.7 35.4 0.00 0.00 0.00 73 1013.1
20260504172825 21 214 20.9 35.4 0.00 0.00 0.00 73 1014.6
20260504172559 21 223 20.9 35.4 0.00 0.00 0.00 72 1013.2
20260504172322 21 197 22.5 35.4 0.00 0.00 0.00 73 1014.8
20260504172047 21 189 19.3 35.4 0.00 0.00 0.00 73 1013.3
20260504171818 21 191 22.5 35.4 0.00 0.00 0.00 73 1014.8